Location: Chevoux
(46.3801°N, 4.9476°E)
Time: 17:28:31
(UTC+00:00)

Cosmos 2297 - Pass Details

Date: 28 January 2021
Orbit: 834 x 860 km, 71.0° (Epoch: 01 March)

Event Time Altitude Azimuth Distance (km) Brightness Sun altitude
Rises 18:44:38 0° 183° (S) 3,387 6.9 -21.7°
Reaches altitude 10° 18:47:10 10° 177° (S) 2,461 6.1 -22.1°
Enters shadow 18:51:24 38° 135° (SE) 1,264 4.3 -22.8°
